SCP
0 0 0 0 0 0 0 0 0 0 0 0 0 0 0 0 0 0 0 0 0 0 0 0 0 0 0 0 0 0 0 0 0 0 0 0 0 0 0 0 0 0 0
0 0 0 0 0 0 0 0 0 0 0 0 0 0 0 0 0 0 0 0 0 0 0 0 0 0 0 0 0 0 0 0 0 0 0 0 0 0 0 0 0 0 0
0 0 0 0 0 0 0 0 0 0 0 0 0 0 0 0 0 0 0 0 0 0 0 0 0 0 0 0 0 0 0 0 0 0 0 0 0 0 0 0 0 0 0
0 0 0 0 0 0 0 0 0 0 0 0 0 0 0 0 0 0 0 0 0 0 0 0 0 0 0 0 0 0 0 0 0 0 0 0 0 0 0 0 0 0 0
0 0 0 0 0 0 0 0 0 0 0 0 0 0 0 0 0 0 0 0 0 0 0 0 0 0 0 0 0 0 0 0 0 0 0 0 0 0 0 0 0 0 0
0 0 0 0 0 0 0 0 0 0 0 0 0 0 0 0 0 0 0 0 0 0 0 0 0 0 0 0 0 0 0 0 0 0 0 0 0 0 0 0 0 0 0
0 0 0 0 0 0 0 0 0 0 0 0 0 0 0 0 0 0 0 0 0 0 0 0 0 0 0 0 0 0 0 0 0 0 0 0 0 0 0 0 0 0 0
0 0 0 0 0 0 0 0 0 0 0 0 0 0 0 0 0 0 0 0 0 0 0 0 0 0 0 0 0 0 0 0 0 0 0 0 0 0 0 0 0 0 0
0 0 0 0 0 0 0 0 0 0 0 0 0 0 0 0 0 0 0 0 0 0 0 0 0 0 0 0 0 0 0 0 0 0 0 0 0 0 0 0 0 0 0
0 0 0 0 0 0 0 0 0 0 0 0 0 0 0 0 0 0 0 0 0 0 0 0 0 0 0 0 0 0 0 0 0 0 0 0 0 0 0 0 0 0 0
0 0 0 0 0 0 0 0 0 0 0 0 0 0 0 0 0 0 0 0 0 0 0 0 0 0 0 0 0 0 0 0 0 0 0 0 0 0 0 0 0 0 0
0 0 0 0 0 0 0 0 0 0 0 0 0 0 0 0 0 0 0 0 0 0 0 0 0 0 0 0 0 0 0 0 0 0 0 0 0 0 0 0 0 0 0
0 0 0 0 0 0 0 0 0 0 0 0 0 0 0 0 0 0 0 0 0 0 0 0 0 0 0 0 0 0 0 0 0 0 0 0 0 0 0 0 0 0 0
0 0 0 0 0 0 0 0 0 0 0 0 0 0 0 0 0 0 0 0 0 0 0 0 0 0 0 0 0 0 0 0 0 0 0 0 0 0 0 0 0 0 0
0 0 0 0 0 0 0 0 0 0 0 0 0 0 0 0 0 0 0 0 0 0 0 0 0 0 0 0 0 0 0 0 0 0 0 0 0 0 0 0 0 0 0
0 0 0 0 0 0 0 0 0 0 0 0 0 0 0 0 0 0 0 0 0 0 0 0 0 0 0 0 0 0 0 0 0 0 0 0 0 0 0 0 0 0 0
0 0 0 0 0 0 0 0 0 0 0 0 0 0 0 0 0 0 0 0 0 0 0 0 0 0 0 0 0 0 0 0 0 0 0 0 0 0 0 0 0 0 0
0 0 0 0 0 0 0 0 0 0 0 0 0 0 0 0 0 0 0 0 0 0 0 0 0 0 0 0 0 0 0 0 0 0 0 0 0 0 0 0 0 0 0
0 0 0 0 0 0 0 0 0 0 0 0 0 0 0 0 0 0 0 0 0 0 0 0 0 0 0 0 0 0 0 0 0 0 0 0 0 0 0 0 0 0 0
0 0 0 0 0 0 0 0 0 0 0 0 0 0 0 0 0 0 0 0 0 0 0 0 0 0 0 0 0 0 0 0 0 0 0 0 0 0 0 0 0 0 0
0 0 0 0 0 0 0 0 0 0 0 0 0 0 0 0 0 0 0 0 0 0 0 0 0 0 0 0 0 0 0 0 0 0 0 0 0 0 0 0 0 0 0
0 0 0 0 0 0 0 0 0 0 0 0 0 -0 -0 -0 0 0 0 0 0 0 0 0 0 0 0 0 0 0 0 0 0 0 0 0 0 0 0 0 0 0 0
0 0 0 0 0 0 0 0 0 0 0 0 0 -0 -0 -0 -0 0 0 0 0 0 0 0 0 0 0 0 0 0 0 0 0 0 0 0 0 0 0 0 0 0 0
0 0 0 0 0 0 0 0 0 0 0 0 0 -0 -0 -0 -0 0 0 0 0 0 0 0 0 0 0 0 0 0 0 0 0 0 0 0 0 0 0 0 0 0 0
0 0 0 0 0 0 0 0 0 0 0 0 0 0 0 0 0 0 0 0 0 0 0 0 0 0 0 0 0 0 0 0 0 0 0 0 0 0 0 0 0 0 0
0 0 0 0 0 0 0 0 0 0 0 0 0 0 0 0 0 0 0 0 0 0 0 0 0 0 0 0 0 0 0 0 0 0 0 0 0 0 0 0 0 0 0
Wind_Speed
2 3 3 4 5 5 5 4 4 4 3 2 1 1 1 1 1 1 2 2 1 1 1 0 0 1 1 0 1 1 1 1 1 1 2 2 2 1 1 1 1 1 1
3 3 3 4 4 4 4 4 4 4 3 2 1 1 1 1 1 1 2 2 2 1 1 0 1 1 1 1 1 1 0 1 1 1 1 1 2 2 2 1 1 1 1
2 1 2 3 4 4 4 4 4 4 4 3 2 2 2 2 2 2 2 3 3 2 1 0 1 0 1 2 1 1 1 1 1 0 1 1 2 2 2 1 1 1 1
2 1 2 3 3 4 4 4 4 4 4 3 2 2 2 2 2 2 2 2 3 3 2 2 0 0 1 1 2 1 1 1 1 1 1 1 1 1 2 2 1 2 1
2 2 2 2 3 4 4 4 4 4 5 4 3 2 2 2 2 2 2 2 2 2 3 2 1 1 1 1 2 2 1 1 2 1 1 1 1 0 1 2 2 2 2
1 1 2 2 3 4 4 5 5 5 5 4 3 3 2 3 3 2 2 2 2 2 2 3 2 2 1 2 2 2 2 2 2 2 1 1 1 1 1 2 2 3 2
1 1 2 3 4 4 5 5 5 5 5 5 4 4 3 2 3 2 2 2 2 2 3 3 3 2 2 2 2 2 2 3 3 3 2 2 2 1 1 2 2 2 2
0 0 1 2 2 3 4 4 5 5 5 5 5 4 4 3 3 3 2 3 3 3 3 3 3 3 3 3 2 3 3 3 3 4 3 3 3 2 2 2 2 2 3
0 1 1 2 2 3 3 4 4 5 5 5 5 4 4 4 4 3 3 3 3 3 4 3 3 4 3 3 3 3 4 3 3 4 4 4 3 3 2 2 3 3 4
1 1 2 2 2 2 3 4 4 4 4 5 5 4 5 4 4 3 3 3 4 4 4 4 4 4 4 4 3 3 4 4 4 3 4 4 3 3 3 3 3 3 4
2 2 2 2 2 2 3 3 4 4 4 5 5 5 5 5 4 4 4 4 4 5 5 5 5 5 4 4 4 4 4 5 5 5 5 6 5 4 3 3 3 3 3
2 2 2 2 2 3 3 3 3 4 4 4 5 5 5 4 4 4 5 5 5 5 5 5 5 5 5 4 5 5 5 5 6 6 6 6 4 5 4 4 4 4 4
2 2 2 2 2 3 3 3 3 4 4 4 4 5 5 4 4 5 5 5 5 5 5 5 5 5 5 5 5 5 5 6 7 7 7 6 6 6 5 5 5 4 4
3 3 2 3 3 2 3 3 4 4 4 4 4 4 4 4 4 5 5 5 5 5 6 6 6 6 6 6 6 6 6 6 6 6 7 7 7 7 6 6 6 5 4
3 3 3 3 3 3 3 3 4 4 4 4 4 4 4 4 4 5 5 5 5 6 6 6 6 6 6 5 6 6 6 6 6 6 6 7 8 9 8 6 5 5 4
4 3 3 3 3 3 3 4 4 4 4 4 4 4 4 4 5 5 5 6 6 6 6 6 6 6 6 9 11 8 5 5 6 6 5 6 8 9 11 12 10 8 6
4 4 4 4 4 4 3 4 4 4 4 4 4 4 4 5 5 5 5 6 6 6 6 6 6 6 8 12 12 11 7 5 5 5 5 5 6 8 6 8 11 10 12
4 4 3 4 3 3 3 3 4 3 4 4 4 4 4 5 5 5 5 5 5 5 6 6 6 6 8 12 13 12 7 5 5 5 5 6 6 6 6 6 6 7 8
3 3 3 3 3 3 3 3 3 3 4 4 5 4 4 5 5 5 5 5 5 5 5 6 6 6 8 12 13 12 5 5 5 6 6 6 7 10 10 7 6 7 7
2 2 2 2 2 3 2 3 4 4 4 5 5 5 4 4 5 5 5 5 5 5 6 6 6 6 6 11 13 12 4 5 5 5 5 8 9 10 11 7 6 7 6
3 2 2 2 3 3 2 3 4 5 5 5 5 5 5 5 5 5 4 5 5 5 5 6 6 6 7 10 12 12 5 5 5 5 4 5 9 10 10 9 6 8 7
3 2 2 3 3 2 2 4 5 5 4 4 5 5 5 5 4 4 4 4 4 5 5 5 6 5 6 9 10 12 10 8 5 5 4 5 9 9 10 8 8 10 8
3 2 2 3 3 3 3 4 5 4 4 4 5 5 5 5 4 4 4 4 4 3 4 4 5 5 5 6 11 12 12 12 6 5 7 8 9 8 6 8 9 7 4
3 2 2 3 4 4 4 5 5 4 3 4 5 5 4 4 4 4 3 3 3 4 4 5 5 5 5 5 5 5 7 9 7 5 6 8 7 6 5 5 5 3 3
3 2 3 4 5 4 4 5 4 3 4 4 4 4 4 4 4 4 4 4 4 4 5 4 4 5 5 7 11 7 5 4 5 4 2 2 2 3 3 3 2 2 2
3 3 3 4 5 4 5 5 4 3 4 4 4 4 3 3 4 4 5 7 7 10 10 10 8 7 9 12 12 12 11 11 9 4 2 2 3 3 3 3 3 2 2
Wind_Direction
39 57 54 48 43 34 32 28 23 10 17 12 4 4 329 338 358 358 7 11 19 37 85 58 63 91 113 91 51 63 47 14 12 34 354 339 337 353 346 328 352 358 343
43 44 45 40 37 26 20 21 14 3 4 359 332 313 303 292 331 347 357 356 10 11 12 140 158 174 146 121 98 68 61 344 359 84 45 338 329 332 346 350 10 358 356
136 66 47 33 26 19 10 4 4 1 357 357 4 8 15 4 3 354 347 346 351 352 336 305 166 190 173 184 192 170 154 212 272 282 158 175 232 296 307 320 346 358 3
111 90 58 30 19 5 3 4 8 8 3 5 17 23 7 325 295 294 311 334 348 343 337 341 343 230 214 199 209 189 204 191 225 279 299 251 183 205 286 301 325 332 322
117 93 69 39 18 10 9 3 6 9 6 5 4 357 343 321 311 317 329 332 336 339 339 337 338 301 258 237 217 210 207 213 221 223 256 311 330 239 217 261 290 304 294
87 64 41 35 21 15 11 7 7 5 2 1 359 352 336 328 326 324 324 318 316 318 327 329 323 302 276 252 232 218 215 220 229 228 218 216 217 219 228 237 251 268 277
96 50 29 17 11 9 4 2 5 2 359 359 358 348 334 321 303 293 298 304 306 299 299 307 298 294 286 274 252 233 232 226 226 226 233 237 242 219 226 231 252 271 284
121 31 2 7 360 357 357 358 359 356 356 355 348 347 343 335 316 307 300 291 287 281 288 283 283 282 281 283 264 244 238 235 230 236 234 238 241 230 217 215 215 260 275
301 325 338 350 346 341 340 343 348 351 352 351 346 347 348 342 325 318 314 305 302 301 295 281 282 280 275 271 267 250 237 234 233 238 235 236 237 238 230 221 208 212 239
302 316 320 321 327 327 330 341 344 345 346 348 345 345 340 337 329 327 327 319 311 308 306 301 283 280 276 270 263 266 248 238 240 238 236 240 237 237 233 230 230 225 225
264 279 295 305 317 335 339 339 343 344 345 344 342 341 335 333 332 334 329 322 317 313 303 298 295 285 277 273 265 266 262 246 244 242 238 240 235 232 231 228 228 230 226
265 274 286 305 320 328 333 333 336 335 332 333 336 332 329 327 332 329 324 322 316 312 306 299 293 291 286 276 266 262 264 254 248 244 241 244 240 234 231 229 232 233 230
279 287 296 301 302 309 318 320 322 320 322 327 327 325 323 327 327 324 324 325 322 317 314 310 299 292 290 283 271 263 261 260 254 246 242 241 235 235 234 234 233 234 238
267 276 287 294 295 299 303 307 313 315 319 323 319 316 318 321 320 321 322 323 322 318 315 309 303 296 288 283 276 271 262 261 262 254 243 237 233 235 233 234 233 231 228
278 279 285 291 295 296 298 307 313 316 318 317 317 315 317 318 321 323 323 322 323 322 318 314 311 306 295 284 277 269 267 262 262 259 250 244 241 242 240 238 230 224 224
284 289 294 300 300 297 298 308 310 315 318 314 314 319 324 325 326 325 324 324 323 320 319 316 312 310 307 308 302 292 271 266 264 263 260 256 252 250 251 252 246 235 226
282 286 291 291 295 296 300 299 305 316 320 316 317 321 322 322 322 322 324 322 320 319 317 315 314 309 307 311 310 305 295 275 265 261 262 266 262 258 245 252 255 251 248
278 285 291 293 294 301 305 304 311 316 317 316 315 318 320 316 316 318 316 315 313 313 311 311 310 308 311 318 317 312 301 286 271 261 254 254 259 255 253 243 246 248 251
266 271 271 275 291 300 302 304 310 312 312 310 308 308 310 309 312 313 311 309 310 311 309 309 311 312 313 317 318 318 300 289 280 270 263 256 251 257 257 249 247 252 256
280 282 296 300 303 302 307 305 305 308 303 302 301 301 301 301 302 302 303 304 306 306 310 314 314 308 306 314 319 319 301 293 289 280 272 266 262 260 258 247 246 251 254
288 292 293 292 289 296 301 294 298 294 295 302 303 305 304 299 292 297 299 302 304 310 311 309 309 308 309 314 317 317 307 295 294 291 282 271 274 274 270 262 250 255 258
295 288 283 288 291 289 283 286 286 289 298 301 302 303 304 301 304 302 302 304 306 308 307 309 311 309 310 315 316 318 314 306 291 291 290 282 284 282 281 276 272 270 268
281 274 266 285 292 282 266 274 285 295 300 303 302 303 304 300 301 298 298 303 304 303 305 307 309 311 312 314 318 319 319 317 304 295 296 295 294 292 290 289 285 278 266
272 266 266 277 286 285 278 271 286 293 291 293 297 300 302 304 303 299 296 295 294 295 298 301 303 305 308 311 312 311 311 310 306 303 303 304 306 304 303 305 298 280 264
278 267 259 267 276 283 281 285 289 288 287 287 289 292 295 296 298 297 291 290 273 281 290 286 287 298 303 309 315 314 310 306 297 302 301 307 309 303 299 299 295 282 279
274 274 271 274 279 284 284 286 283 275 276 288 292 289 290 290 293 296 299 302 299 303 302 302 301 298 306 314 317 317 317 319 319 315 313 308 301 294 290 287 288 286 276